Gonzales, LA

12:22 AM CDT on March 23, 2017 (GMT -0500)
Gonzales

Weather History for KL38 - January, 2014

Change the Weather History Date:

Wednesday, January 15, 2014

  Actual Average (KBTR) Record (KBTR)
Temperature  
Mean Temperature 44 °F -  
Max Temperature 53 °F 59 °F 81 °F (1947)
Min Temperature 34 °F 37 °F 18 °F (1979)
Degree Days  
Heating Degree Days 21    
Moisture  
Dew Point 26 °F    
Average Humidity 50    
Maximum Humidity 95    
Minimum Humidity 21    
Precipitation  
Precipitation 0.00 in - - ()
Sea Level Pressure  
Sea Level Pressure 30.20 in    
Wind  
Wind Speed 6 mph (NW)    
Max Wind Speed 15 mph    
Max Gust Speed 25 mph    
Visibility 10 miles    
Events      
Averages and records for this station are not official NWS values.
T = Trace of Precipitation, MM = Missing Value Source: NWS Daily Summary

Daily Weather History Graph

Daily Weather History Graph

Search for Another Location

Airport or City:

Trip Planner

Search our weather history database for the weather conditions in past years. The results will help you decide how hot, cold, wet, or windy it might be!

Date:

Astronomy

Jan. 15, 2014 Rise Set
Actual Time 7:00 AM CST 5:26 PM CST
Civil Twilight 6:34 AM CST 5:51 PM CST
Nautical Twilight 6:05 AM CST 6:21 PM CST
Astronomical Twilight 5:36 AM CST 6:50 PM CST
Moon 5:19 PM CST (1/15) 6:20 AM CST (1/15)
Length of Visible Light 11h 17m
Length of Day
10h 25m
Full, 100% of the Moon is Illuminated
Jan 15
Full
Jan 15
Full
Jan 23
Last Quarter
Jan 30
New
Feb 6
First Quarter

Hourly Weather History & Observations

Time (CST) Temp. Windchill Dew Point Humidity Pressure Visibility Wind Dir Wind Speed Gust Speed Precip Events Conditions
12:15 AM 43.0 °F - 37.9 °F 82% 30.10 in 10.0 mi Calm Calm - N/A   Clear
12:35 AM 41.0 °F - 37.6 °F 88% 30.10 in 10.0 mi Calm Calm - N/A   Clear
12:55 AM 40.3 °F - 37.8 °F 91% 30.09 in 10.0 mi Calm Calm - N/A   Clear
1:15 AM 40.5 °F - 38.1 °F 91% 30.09 in 10.0 mi Calm Calm - N/A   Clear
1:35 AM 40.1 °F - 38.5 °F 94% 30.10 in 10.0 mi Calm Calm - N/A   Clear
1:55 AM 40.5 °F - 38.7 °F 93% 30.10 in 10.0 mi Calm Calm - N/A   Clear
2:15 AM 42.8 °F 38.6 °F 41.5 °F 95% 30.11 in 10.0 mi WNW 6.9 mph - N/A   Clear
2:35 AM 46.9 °F - 41.2 °F 80% 30.11 in 10.0 mi WNW 4.6 mph - N/A   Clear
2:55 AM 46.4 °F 42.9 °F 41.4 °F 83% 30.12 in 10.0 mi NW 6.9 mph - N/A   Clear
3:15 AM 46.9 °F - 41.0 °F 80% 30.12 in 10.0 mi WNW 6.9 mph - N/A   Clear
3:35 AM 47.3 °F - 40.1 °F 76% 30.13 in 10.0 mi NW 6.9 mph - N/A   Clear
3:55 AM 47.7 °F - 39.4 °F 73% 30.14 in 10.0 mi NNW 8.1 mph - N/A   Clear
4:15 AM 48.7 °F - 38.3 °F 67% 30.15 in 10.0 mi North 11.5 mph 17.3 mph N/A   Scattered Clouds
4:35 AM 49.1 °F - 37.0 °F 63% 30.15 in 10.0 mi North 10.4 mph 16.1 mph N/A   Mostly Cloudy
4:55 AM 48.6 °F - 35.8 °F 61% 30.16 in 10.0 mi North 6.9 mph - N/A   Scattered Clouds
5:15 AM 47.7 °F - 35.8 °F 63% 30.17 in 10.0 mi NNW 8.1 mph - N/A   Clear
5:35 AM 46.4 °F 43.5 °F 35.8 °F 67% 30.18 in 10.0 mi NNW 5.8 mph - N/A   Clear
5:55 AM 45.9 °F 41.7 °F 35.8 °F 68% 30.18 in 10.0 mi NNW 8.1 mph - N/A   Clear
6:15 AM 45.1 °F 41.4 °F 35.6 °F 69% 30.19 in 10.0 mi NNW 6.9 mph - N/A   Clear
6:35 AM 46.0 °F 43.1 °F 36.5 °F 69% 30.20 in 10.0 mi NNW 5.8 mph - N/A   Mostly Cloudy
6:55 AM 46.4 °F 42.4 °F 36.7 °F 69% 30.20 in 10.0 mi NNW 8.1 mph - N/A   Overcast
7:15 AM 46.6 °F - 34.7 °F 63% 30.21 in 10.0 mi NNW 9.2 mph - N/A   Mostly Cloudy
7:35 AM 45.9 °F 41.2 °F 32.9 °F 61% 30.23 in 10.0 mi NNW 9.2 mph - N/A   Scattered Clouds
7:55 AM 46.4 °F 42.4 °F 32.7 °F 59% 30.24 in 10.0 mi NNW 8.1 mph - N/A   Clear
8:15 AM 46.8 °F - 32.2 °F 57% 30.25 in 10.0 mi NNW 8.1 mph - N/A   Clear
8:35 AM 47.1 °F - 31.3 °F 54% 30.26 in 10.0 mi NNW 15.0 mph 20.7 mph N/A   Clear
8:55 AM 47.3 °F - 29.7 °F 50% 30.26 in 10.0 mi North 10.4 mph 20.7 mph N/A   Clear
9:15 AM 48.0 °F - 29.7 °F 49% 30.27 in 10.0 mi NNW 13.8 mph 18.4 mph N/A   Clear
9:35 AM 48.4 °F - 29.3 °F 48% 30.28 in 10.0 mi NW 11.5 mph 16.1 mph N/A   Clear
9:55 AM 50.0 °F - 28.4 °F 43% 30.28 in 10.0 mi NNW 11.5 mph 17.3 mph N/A   Clear
10:15 AM 50.0 °F - 23.4 °F 35% 30.28 in 10.0 mi NNW 12.7 mph 20.7 mph N/A   Clear
10:35 AM 50.2 °F - 21.7 °F 33% 30.28 in 10.0 mi NW 15.0 mph 20.7 mph N/A   Clear
10:55 AM 50.7 °F - 19.9 °F 30% 30.27 in 10.0 mi NW 15.0 mph 20.7 mph N/A   Clear
11:15 AM 51.6 °F - 18.9 °F 28% 30.26 in 10.0 mi NNW 13.8 mph 19.6 mph N/A   Clear
11:35 AM 51.8 °F - 16.7 °F 25% 30.25 in 10.0 mi NW 12.7 mph 21.9 mph N/A   Clear
11:55 AM 52.0 °F - 14.5 °F 23% 30.24 in 10.0 mi NNW 12.7 mph 24.2 mph N/A   Clear
12:15 PM 52.0 °F - 14.0 °F 22% 30.22 in 10.0 mi North 9.2 mph 19.6 mph N/A   Clear
12:35 PM 52.3 °F - 14.4 °F 22% 30.20 in 10.0 mi WNW 11.5 mph 19.6 mph N/A   Clear
12:55 PM 52.3 °F - 14.7 °F 22% 30.19 in 10.0 mi NNW 9.2 mph - N/A   Clear
1:15 PM 53.6 °F - 15.8 °F 22% 30.19 in 10.0 mi WNW 13.8 mph 18.4 mph N/A   Clear
1:35 PM 53.6 °F - 14.9 °F 22% 30.18 in 10.0 mi NW 9.2 mph 16.1 mph N/A   Clear
1:55 PM 53.6 °F - 16.2 °F 23% 30.18 in 10.0 mi NW 12.7 mph 21.9 mph N/A   Clear
2:15 PM 53.6 °F - 14.5 °F 21% 30.18 in 10.0 mi West 15.0 mph 25.3 mph N/A   Clear
2:35 PM 53.6 °F - 15.8 °F 22% 30.18 in 10.0 mi WNW 12.7 mph 21.9 mph N/A   Clear
2:55 PM 53.6 °F - 15.8 °F 22% 30.18 in 10.0 mi WNW 15.0 mph 23.0 mph N/A   Clear
3:15 PM 53.2 °F - 15.6 °F 23% 30.18 in 10.0 mi NW 13.8 mph 25.3 mph N/A   Clear
3:35 PM 53.1 °F - 17.6 °F 25% 30.19 in 10.0 mi NW 10.4 mph 20.7 mph N/A   Clear
3:55 PM 52.9 °F - 18.1 °F 26% 30.19 in 10.0 mi WNW 13.8 mph 20.7 mph N/A   Clear
4:15 PM 52.7 °F - 18.0 °F 25% 30.19 in 10.0 mi NW 11.5 mph - N/A   Clear
4:35 PM 52.0 °F - 18.7 °F 27% 30.19 in 10.0 mi NW 11.5 mph 19.6 mph N/A   Clear
4:55 PM 51.3 °F - 19.2 °F 28% 30.19 in 10.0 mi WNW 6.9 mph - N/A   Clear
5:15 PM 50.4 °F - 19.2 °F 29% 30.19 in 10.0 mi WNW 6.9 mph - N/A   Clear
5:35 PM 48.9 °F - 19.9 °F 32% 30.18 in 10.0 mi WNW 3.5 mph - N/A   Clear
5:55 PM 48.4 °F - 20.3 °F 33% 30.19 in 10.0 mi WNW 4.6 mph - N/A   Clear
6:15 PM 48.2 °F - 19.8 °F 32% 30.19 in 10.0 mi WNW 5.8 mph - N/A   Clear
6:35 PM 47.7 °F - 19.6 °F 33% 30.20 in 10.0 mi WNW 3.5 mph - N/A   Clear
6:55 PM 47.7 °F - 19.4 °F 33% 30.21 in 10.0 mi WNW 5.8 mph - N/A   Clear
7:15 PM 47.7 °F - 20.1 °F 34% 30.21 in 10.0 mi WNW 6.9 mph - N/A   Clear
7:35 PM 47.5 °F - 19.9 °F 34% 30.22 in 10.0 mi WNW 6.9 mph - N/A   Clear
7:55 PM 46.8 °F - 20.3 °F 35% 30.23 in 10.0 mi NW 5.8 mph - N/A   Clear
8:15 PM 45.0 °F 41.8 °F 21.2 °F 39% 30.24 in 10.0 mi NNW 5.8 mph - N/A   Clear
8:35 PM 43.3 °F 40.7 °F 21.6 °F 42% 30.24 in 10.0 mi NW 4.6 mph - N/A   Clear
8:55 PM 42.3 °F - 21.9 °F 44% 30.24 in 10.0 mi Calm Calm - N/A   Clear
9:15 PM 41.5 °F - 23.0 °F 48% 30.24 in 10.0 mi Calm Calm - N/A   Clear
9:35 PM 40.3 °F - 23.4 °F 51% 30.24 in 10.0 mi Calm Calm - N/A   Clear
9:55 PM 39.9 °F - 22.8 °F 50% 30.24 in 10.0 mi Calm Calm - N/A   Clear
10:15 PM 37.8 °F - 26.2 °F 63% 30.24 in 10.0 mi Calm Calm - N/A   Clear
10:35 PM 38.5 °F - 23.5 °F 55% 30.24 in 10.0 mi Calm Calm - N/A   Clear
10:55 PM 36.7 °F - 25.2 °F 63% 30.23 in 10.0 mi Calm Calm - N/A   Clear
11:15 PM 36.3 °F - 24.8 °F 63% 30.23 in 10.0 mi Calm Calm - N/A   Clear
11:35 PM 35.1 °F - 27.3 °F 73% 30.22 in 10.0 mi Calm Calm - N/A   Clear
11:55 PM 34.7 °F - 26.8 °F 73% 30.21 in 10.0 mi Calm Calm - N/A   Clear